Time,TemperatureF,DewpointF,PressureIn,WindDirection,WindDirectionDegrees,WindSpeedMPH,WindSpeedGustMPH,Humidity,HourlyPrecipIn,Conditions,Clouds,dailyrainin,SoftwareType,DateUTC
2013-02-08 18:39:00,31.8,18.3,0.00,NNE,31,0.0,0.0,57,0.00,,---,0.00,VWS V14.01,2013-02-08 23:39:00,
2013-02-08 18:40:00,31.8,18.3,0.00,NNE,25,0.0,0.0,57,0.00,,---,0.00,VWS V14.01,2013-02-08 23:40:00,
2013-02-08 18:41:00,31.8,17.9,0.00,North,357,0.0,0.0,56,0.00,,---,0.00,VWS V14.01,2013-02-08 23:41:00,
2013-02-08 18:46:00,31.6,16.9,0.00,NNE,21,0.0,0.0,54,0.00,,---,0.00,VWS V14.01,2013-02-08 23:46:00,
2013-02-08 18:49:00,31.6,16.9,0.00,NNE,29,0.0,0.0,54,0.00,,---,0.00,VWS V14.01,2013-02-08 23:49:00,
2013-02-08 18:54:00,31.6,16.5,0.00,North,2,0.0,0.0,53,0.00,,---,0.00,VWS V14.01,2013-02-08 23:54:00,
2013-02-08 19:00:00,31.5,15.4,0.00,North,357,0.0,0.0,51,0.00,,---,0.00,VWS V14.01,2013-02-09 00:00:00,
2013-02-08 19:05:00,31.5,15.4,0.00,NE,55,0.0,0.0,51,0.00,,---,0.00,VWS V14.01,2013-02-09 00:05:00,
2013-02-08 19:10:00,31.3,15.3,0.00,NNE,31,0.0,0.0,51,0.00,,---,0.00,VWS V14.01,2013-02-09 00:10:00,
2013-02-08 19:16:00,31.3,15.7,0.00,NW,326,0.0,0.0,52,0.00,,---,0.00,VWS V14.01,2013-02-09 00:16:00,
2013-02-08 19:22:00,31.1,16.0,0.00,SE,138,0.0,0.0,53,0.00,,---,0.00,VWS V14.01,2013-02-09 00:22:00,
2013-02-08 19:28:00,31.1,16.4,0.00,West,277,0.0,0.0,54,0.00,,---,0.00,VWS V14.01,2013-02-09 00:28:00,
2013-02-08 19:33:00,30.9,16.7,0.00,NNE,17,0.0,0.0,55,0.00,,---,0.00,VWS V14.01,2013-02-09 00:33:00,
2013-02-08 19:38:00,30.9,17.1,0.00,NNE,16,0.0,0.0,56,0.00,,---,0.00,VWS V14.01,2013-02-09 00:38:00,
2013-02-08 19:44:00,30.7,17.7,0.00,NNE,16,0.0,0.0,58,0.00,,---,0.00,VWS V14.01,2013-02-09 00:44:00,
2013-02-08 19:49:00,30.6,18.0,0.00,NNE,12,0.0,0.0,59,0.00,,---,0.00,VWS V14.01,2013-02-09 00:49:00,
2013-02-08 19:55:00,30.4,17.8,0.00,NNE,13,0.0,0.0,59,0.00,,---,0.00,VWS V14.01,2013-02-09 00:55:00,
2013-02-08 20:00:00,30.4,18.2,0.00,ESE,112,0.0,0.0,60,0.00,,---,0.00,VWS V14.01,2013-02-09 01:00:00,
2013-02-08 20:05:00,30.4,18.2,0.00,NNE,32,0.0,0.0,60,0.00,,---,0.00,VWS V14.01,2013-02-09 01:05:00,
2013-02-08 20:10:00,30.6,18.7,0.00,NE,56,0.0,0.0,61,0.00,,---,0.00,VWS V14.01,2013-02-09 01:10:00,
2013-02-08 20:16:00,30.6,18.7,0.00,NNE,15,0.0,0.0,61,0.00,,---,0.00,VWS V14.01,2013-02-09 01:16:00,
2013-02-08 20:21:00,30.4,18.6,0.00,NNE,32,0.0,0.0,61,0.00,,---,0.00,VWS V14.01,2013-02-09 01:21:00,
2013-02-08 20:27:00,30.4,18.6,0.00,North,8,0.0,0.0,61,0.00,,---,0.00,VWS V14.01,2013-02-09 01:27:00,
2013-02-08 20:32:00,30.4,18.6,0.00,North,11,0.0,0.0,61,0.00,,---,0.00,VWS V14.01,2013-02-09 01:32:00,
2013-02-08 20:38:00,30.4,18.6,0.00,North,2,0.0,0.0,61,0.00,,---,0.00,VWS V14.01,2013-02-09 01:38:00,
2013-02-08 20:44:00,30.4,18.6,0.00,North,357,0.0,0.0,61,0.00,,---,0.00,VWS V14.01,2013-02-09 01:44:00,
2013-02-08 20:49:00,30.2,18.8,0.00,NNE,19,0.0,0.0,62,0.00,,---,0.00,VWS V14.01,2013-02-09 01:49:00,
2013-02-08 20:55:00,30.2,18.8,0.00,NNE,24,0.0,0.0,62,0.00,,---,0.00,VWS V14.01,2013-02-09 01:55:00,
2013-02-08 21:00:00,30.2,18.8,0.00,NNE,20,0.0,0.0,62,0.00,,---,0.00,VWS V14.01,2013-02-09 02:00:00,
2013-02-08 21:06:00,30.2,18.8,0.00,North,357,0.0,0.0,62,0.00,,---,0.00,VWS V14.01,2013-02-09 02:06:00,
2013-02-08 21:11:00,30.0,18.6,0.00,North,6,0.0,0.0,62,0.00,,---,0.00,VWS V14.01,2013-02-09 02:11:00,
2013-02-08 21:17:00,29.8,18.4,0.00,North,7,0.0,0.0,62,0.00,,---,0.00,VWS V14.01,2013-02-09 02:17:00,
2013-02-08 21:22:00,29.7,18.2,0.00,NNE,20,0.0,0.0,62,0.00,,---,0.00,VWS V14.01,2013-02-09 02:22:00,
2013-02-08 21:27:00,29.5,17.7,0.00,NE,36,0.0,0.0,61,0.00,,---,0.00,VWS V14.01,2013-02-09 02:27:00,
2013-02-08 21:33:00,29.5,17.7,0.00,North,357,0.0,0.0,61,0.00,,---,0.00,VWS V14.01,2013-02-09 02:33:00,
2013-02-08 21:38:00,29.5,17.7,0.00,North,5,0.0,0.0,61,0.00,,---,0.00,VWS V14.01,2013-02-09 02:38:00,
2013-02-08 21:43:00,29.5,17.3,0.00,NE,37,0.0,0.0,60,0.00,,---,0.00,VWS V14.01,2013-02-09 02:43:00,
2013-02-08 21:48:00,29.5,17.3,0.00,NNE,22,0.0,0.0,60,0.00,,---,0.00,VWS V14.01,2013-02-09 02:48:00,
2013-02-08 21:54:00,29.7,17.5,0.00,NNE,25,0.0,0.0,60,0.00,,---,0.00,VWS V14.01,2013-02-09 02:54:00,
2013-02-08 21:59:00,29.7,17.5,0.00,NNE,16,0.0,0.0,60,0.00,,---,0.00,VWS V14.01,2013-02-09 02:59:00,
2013-02-08 22:05:00,29.7,17.1,0.00,North,357,0.0,0.0,59,0.00,,---,0.00,VWS V14.01,2013-02-09 03:05:00,
2013-02-08 22:11:00,29.7,17.1,0.00,North,5,0.0,0.0,59,0.00,,---,0.00,VWS V14.01,2013-02-09 03:11:00,
2013-02-08 22:16:00,29.5,16.5,0.00,NNE,16,0.0,0.0,58,0.00,,---,0.00,VWS V14.01,2013-02-09 03:16:00,
2013-02-08 22:22:00,29.5,16.5,0.00,North,2,0.0,0.0,58,0.00,,---,0.00,VWS V14.01,2013-02-09 03:22:00,
2013-02-08 22:27:00,29.5,16.1,0.00,North,7,0.0,0.0,57,0.00,,---,0.00,VWS V14.01,2013-02-09 03:27:00,
2013-02-08 22:32:00,29.5,16.1,0.00,North,2,0.0,0.0,57,0.00,,---,0.00,VWS V14.01,2013-02-09 03:32:00,
2013-02-08 22:37:00,29.3,16.0,0.00,North,5,0.0,0.0,57,0.00,,---,0.00,VWS V14.01,2013-02-09 03:37:00,
2013-02-08 22:43:00,29.1,15.4,0.00,NE,37,0.0,0.0,56,0.00,,---,0.00,VWS V14.01,2013-02-09 03:43:00,
2013-02-08 22:48:00,28.9,15.2,0.00,NNE,18,0.0,0.0,56,0.00,,---,0.00,VWS V14.01,2013-02-09 03:48:00,
2013-02-08 22:54:00,28.4,14.3,0.00,North,9,0.0,0.0,55,0.00,,---,0.00,VWS V14.01,2013-02-09 03:54:00,
2013-02-08 23:00:00,28.4,14.3,0.00,NNW,335,0.0,0.0,55,0.00,,---,0.00,VWS V14.01,2013-02-09 04:00:00,
2013-02-08 23:05:00,28.2,13.7,0.00,NNE,12,0.0,0.0,54,0.00,,---,0.00,VWS V14.01,2013-02-09 04:05:00,
2013-02-08 23:11:00,28.0,13.6,0.00,NNW,341,0.0,0.0,54,0.00,,---,0.00,VWS V14.01,2013-02-09 04:11:00,
2013-02-08 23:16:00,28.0,13.6,0.00,North,9,0.0,0.0,54,0.00,,---,0.00,VWS V14.01,2013-02-09 04:16:00,
2013-02-08 23:22:00,27.9,13.4,0.00,NNE,17,0.0,0.0,54,0.00,,---,0.00,VWS V14.01,2013-02-09 04:22:00,
2013-02-08 23:28:00,27.7,13.2,0.00,NNE,22,0.0,0.0,54,0.00,,---,0.00,VWS V14.01,2013-02-09 04:28:00,
2013-02-08 23:33:00,27.5,13.1,0.00,North,5,0.0,0.0,54,0.00,,---,0.00,VWS V14.01,2013-02-09 04:33:00,
2013-02-08 23:39:00,27.5,13.1,0.00,NNW,341,0.0,0.0,54,0.00,,---,0.00,VWS V14.01,2013-02-09 04:39:00,
2013-02-08 23:44:00,27.5,13.1,0.00,North,7,0.0,0.0,54,0.00,,---,0.00,VWS V14.01,2013-02-09 04:44:00,
2013-02-08 23:50:00,27.5,13.5,0.00,North,4,0.0,0.0,55,0.00,,---,0.00,VWS V14.01,2013-02-09 04:50:00,
2013-02-08 23:55:00,27.3,13.3,0.00,North,8,0.0,0.0,55,0.00,,---,0.00,VWS V14.01,2013-02-09 04:55:00,